Regional Weather Roundup
Issued by NWS

Home | Current Version | Previous Version | Graphics & Text | Print | Product List | Glossary On
Versions: 1 2 3 4 5 6 7 8 9 10 11 12 13 14 15 16 17 18 19 20 21 22 23 24 25 26 27 28 29 30 31 32 33 34 35 36 37 38 39 40 41 42 43 44 45 46 47 48 49 50
000
ASUS43 KMKX 220900
RWRWI

WISCONSIN REGIONAL WEATHER ROUNDUP
NATIONAL WEATHER SERVICE MILWAUKEE/SULLIVAN WI
300 AM CST WED FEB 22 2017

NOTE: "FAIR" INDICATES FEW OR NO CLOUDS BELOW 12,000 FEET WITH NO
SIGNIFICANT WEATHER AND/OR OBSTRUCTIONS TO VISIBILITY.

WIZ001-002-006>008-014>016-023>028-221000-
NORTHWEST WISCONSIN

CITY           SKY/WX    TMP DP  RH WIND       PRES   REMARKS
SUPERIOR ARPT  PTCLDY    32  32  99 CALM      29.63S FOG
ASHLAND        PTCLDY    39  36  89 S5        29.64F
HAYWARD        CLOUDY    32  30  92 CALM      29.64F
SIREN            N/A     33  33  99 CALM      29.65F FOG
CUMBERLAND     FOG       32  32 100 CALM      29.66F VSB 1/2
RICE LAKE      PTCLDY    35  34  97 CALM      29.67F
CHETEK         PTCLDY    35  35 100 CALM      29.67F
LADYSMITH      CLOUDY    37  34  90 SE5       29.67F WCI  33
EAU CLAIRE     NOT AVBL
MENOMONIE      MOCLDY    38  36  92 CALM      29.66F
NEW RICHMOND   CLOUDY    38  38 100 SE5       29.65F FOG     WCI  34
OSCEOLA        FOG       36  36 100 CALM      29.67F VSB 1/2
$$

WIZ003>005-009-010-017-018-221000-
NORTH CENTRAL WISCONSIN

CITY           SKY/WX    TMP DP  RH WIND       PRES   REMARKS
MANITOWISH WTR CLOUDY    39  36  91 S3        29.66F
ARBOR VITAE    MOCLDY    41  35  81 S5          N/A
WOODRUFF       MOCLDY    41  35  81 S5          N/A
RHINELANDER    PTCLDY    43  34  70 SW3       29.67F
EAGLE RIVER    MOCLDY    42  32  67 CALM      29.66F
LAND O LAKES   CLOUDY    41  33  72 CALM      29.67F
PHILLIPS       CLOUDY    39  35  85 CALM      29.65F
TOMAHAWK       CLOUDY    37  32  81 CALM      29.69F
MEDFORD        PTCLDY    40  35  81 S6        29.67F
MERRILL        NOT AVBL
$$

WIZ029-030-035-036-043>047-221000-
CENTRAL WISCONSIN

CITY           SKY/WX    TMP DP  RH WIND       PRES   REMARKS
WAUSAU         CLOUDY    44  35  70 SE3       29.68F
MOSINEE        PTCLDY    37  34  87 S6        29.70F WCI  33
MARSHFIELD     PTCLDY    41  35  79 CALM      29.68F
STEVENS POINT  CLEAR     34  33  96 CALM      29.72S
WAUPACA        CLEAR     44  35  71 CALM      29.73S
WAUTOMA        CLEAR     33  31  92 CALM      29.73F
WISC RAPIDS    PTCLDY    36  34  92 S3        29.71F
CAMP DOUGLAS   NOT AVBL
$$

WIZ011>013-019>022-031-037>040-048>050-221000-
NORTHEAST WISCONSIN

CITY           SKY/WX    TMP DP  RH WIND       PRES   REMARKS
ANTIGO         PTCLDY    40  33  77 SW5       29.70F
SHAWANO        PTCLDY    43  36  75 CALM      29.71F
OCONTO         CLEAR     35  33  90 CALM      29.71F
STURGEON BAY   MOCLDY    41  38  89 SE5       29.73F
GREEN BAY      CLEAR     42  37  82 CALM      29.72F
MANITOWOC      NOT AVBL
APPLETON       CLEAR     41  32  70 S7        29.71F
CLINTONVILLE   CLEAR     37  34  87 CALM      29.71F
OSHKOSH        CLEAR     45  38  76 S10       29.72F
$$

WIZ032>034-041-042-053>061-221000-
SOUTHWEST WISCONSIN

CITY           SKY/WX    TMP DP  RH WIND       PRES   REMARKS
LA CROSSE      CLEAR     47  37  68 S9        29.70F
SPARTA         CLEAR     47  37  68 S3        29.71F
VIROQUA        CLEAR     47  38  71 S12G17    29.71F
BOSCOBEL       CLEAR     37  34  89 SW3       29.74F FOG
PRAIRIE DU CHI CLEAR     48  39  70 CALM      29.74F
PLATTEVILLE    CLEAR     43  43 100 S8        29.77F
$$

WIZ056-057-062-063-064-067-068-221000-
SOUTH CENTRAL WISCONSIN

CITY           SKY/WX    TMP DP  RH WIND       PRES   REMARKS
REEDSBURG      CLEAR     50  45  83 SW10      29.72F
BARABOO/DELLS  CLEAR     51  42  71 SW13      29.74S
LONE ROCK      NOT AVBL
MINERAL POINT  CLEAR     45  43  93 S7        29.77F
MADISON        CLEAR     47  42  83 SW5       29.75F
MIDDLETON      CLEAR     53  47  79 SW8       29.76F
WATERTOWN      CLEAR     43  43 100 S5        29.77F
MONROE         CLEAR     45  45 100 SW14      29.78F
JANESVILLE     FOG       46  46 100 SW6       29.79F VSB 1/2
$$

WIZ051-052-058>065-066-070>072-221000-
SOUTHEAST WISCONSIN

CITY           SKY/WX    TMP DP  RH WIND       PRES   REMARKS
MILWAUKEE      CLEAR     40  38  93 CALM      29.79F FOG
WAUKESHA       CLEAR     45  43  93 SW6       29.79F
MILWAUKEE/TIMM CLEAR     39  36  87 SW5       29.79F
RACINE         CLEAR     50  48  93 SW6       29.80F FOG
KENOSHA        FOG       46  45  96 SW6       29.79F VSB 1/4
FOND DU LAC    CLEAR     49  41  74 SW12      29.74F
SHEBOYGAN      CLEAR     43  37  79 S6        29.75F
WEST BEND      CLEAR     50  48  93 SW8       29.77F
JUNEAU         CLEAR     44  40  86 S7        29.77F
$$

LSZ147-162-221000-
LAKE SUPERIOR

STATION/POSITION TIME  TEMP    WIND        PRES    WAVE
                       AIR SEA DIR/SP/G            HT/PER
                 (UTC) (F)     (DEG/KT/KT) (MB)    (FT/S)
DEVILS ISLAND    0800   39     190/  7/  9 1004.4F
PORT WING        0840   31     290/  4/  4 1004.1F
SAXON HARBOR     0830   39     190/  3/  5 1003.4F
$$

LMZ867-665-643>646-221000-
LAKE MICHIGAN

STATION/POSITION TIME  TEMP    WIND        PRES    WAVE
                       AIR SEA DIR/SP/G            HT/PER
                 (UTC) (F)     (DEG/KT/KT) (MB)    (FT/S)
CHAMBERS ISLAND  0840   49     170/  5/ 10 1005.8F
NORTHPORT PIER   0840   40     150/  2/  5 1006.4F
SISTER BAY       0835   45     140/ 10/ 12   N/A
ALGOMA LAKESHORE 0810          210/  6/  7   N/A
KEWAUNEE LAKESHO 0830   38     190/ 10/ 11 1006.8F
SHEBOYGAN LAKESH 0800   41     200/  6/  6 1008.4F
PORT WASHINGTON  0840   39     300/  1/  2 1009.1F
MILWAUKEE LAKESH 0830   47     190/  7/  7   N/A
KENOSHA   LAKESH 0800   52     210/  6/  7 1009.5
$$

TC  - TEMPERATURE IN CELSIUS
VSB - VISIBILITY IN STATUTE MILES
WCI - WIND CHILL INDEX
HX  - HEAT INDEX





USA.gov is the U.S. government's official web portal to all federal, state and local government web resources and services.